QPF
0.02 0.02 0.01 0.01 0.01 0.01 0.01 0.01 0.00 0.00 0.00 0.00 0.00 0.00 0.00 0.00 0.00 0.00 0.00 0.00 0.00 0.00 0.00 0.00 0.00 0.00 0.00 0.00 0.01 0.01 0.01 0.00 0.00 0.00 0.00 0.00 0.00 0.00 0.00 0.00 0.00 0.00 0.00
0.02 0.01 0.01 0.01 0.01 0.01 0.01 0.01 0.01 0.01 0.01 0.01 0.00 0.00 0.00 0.00 0.00 0.00 0.00 0.00 0.00 0.00 0.00 0.00 0.00 0.00 0.01 0.01 0.01 0.01 0.01 0.00 0.00 0.00 0.00 0.00 0.00 0.00 0.00 0.00 0.00 0.00 0.01
0.02 0.01 0.01 0.01 0.01 0.01 0.01 0.02 0.02 0.01 0.01 0.01 0.01 0.01 0.00 0.00 0.00 0.00 0.00 0.00 0.00 0.00 0.00 0.00 0.00 0.00 0.01 0.01 0.01 0.01 0.01 0.01 0.01 0.01 0.01 0.01 0.01 0.01 0.01 0.01 0.01 0.01 0.01
0.02 0.02 0.01 0.01 0.01 0.01 0.01 0.01 0.01 0.00 0.01 0.00 0.01 0.01 0.00 0.00 0.00 0.00 0.00 0.00 0.00 0.00 0.00 0.00 0.00 0.00 0.00 0.00 0.01 0.01 0.01 0.01 0.01 0.01 0.01 0.01 0.01 0.01 0.01 0.02 0.02 0.02 0.02
0.02 0.02 0.01 0.01 0.01 0.01 0.01 0.00 0.00 0.00 0.00 0.00 0.00 0.00 0.00 0.00 0.00 0.00 0.00 0.00 0.00 0.00 0.00 0.00 0.00 0.00 0.00 0.00 0.00 0.01 0.01 0.01 0.01 0.02 0.02 0.02 0.01 0.02 0.02 0.03 0.03 0.03 0.03
0.03 0.03 0.02 0.02 0.02 0.02 0.01 0.01 0.01 0.01 0.00 0.00 0.00 0.00 0.00 0.00 0.00 0.00 0.00 0.00 0.00 0.00 0.00 0.00 0.00 0.00 0.00 0.00 0.00 0.00 0.00 0.01 0.01 0.02 0.02 0.02 0.02 0.02 0.02 0.03 0.03 0.03 0.03
0.04 0.04 0.03 0.03 0.03 0.03 0.03 0.03 0.03 0.03 0.02 0.02 0.02 0.01 0.01 0.01 0.01 0.00 0.00 0.00 0.00 0.00 0.00 0.00 0.00 0.00 0.00 0.00 0.00 0.00 0.00 0.01 0.01 0.01 0.01 0.01 0.02 0.02 0.02 0.03 0.04 0.04 0.04
0.03 0.03 0.02 0.03 0.03 0.04 0.03 0.03 0.04 0.04 0.05 0.04 0.03 0.02 0.01 0.01 0.00 0.00 0.01 0.00 0.00 0.00 0.00 0.00 0.00 0.00 0.00 0.00 0.00 0.00 0.00 0.00 0.01 0.01 0.01 0.01 0.01 0.02 0.02 0.02 0.03 0.04 0.05
0.03 0.02 0.02 0.03 0.03 0.04 0.04 0.04 0.04 0.04 0.04 0.05 0.04 0.04 0.03 0.02 0.02 0.01 0.01 0.00 0.00 0.00 0.00 0.00 0.00 0.00 0.00 0.00 0.00 0.00 0.00 0.00 0.00 0.00 0.01 0.02 0.02 0.02 0.03 0.03 0.04 0.05 0.05
0.06 0.04 0.04 0.04 0.04 0.04 0.04 0.04 0.05 0.05 0.06 0.07 0.06 0.04 0.04 0.04 0.04 0.03 0.01 0.01 0.01 0.01 0.01 0.01 0.00 0.00 0.00 0.00 0.00 0.00 0.00 0.00 0.00 0.01 0.01 0.02 0.04 0.04 0.05 0.05 0.05 0.05 0.04
0.10 0.07 0.05 0.06 0.06 0.06 0.06 0.05 0.05 0.05 0.06 0.07 0.06 0.05 0.04 0.03 0.03 0.03 0.02 0.02 0.02 0.01 0.01 0.01 0.01 0.00 0.00 0.00 0.00 0.00 0.00 0.00 0.00 0.01 0.01 0.02 0.03 0.04 0.05 0.07 0.06 0.05 0.05
0.12 0.11 0.09 0.08 0.07 0.08 0.08 0.07 0.06 0.06 0.06 0.07 0.08 0.07 0.06 0.05 0.04 0.04 0.04 0.03 0.03 0.02 0.01 0.01 0.01 0.01 0.00 0.00 0.00 0.00 0.00 0.00 0.00 0.01 0.01 0.02 0.02 0.03 0.04 0.05 0.06 0.07 0.07
0.12 0.10 0.09 0.09 0.07 0.07 0.07 0.08 0.09 0.09 0.09 0.08 0.08 0.08 0.07 0.06 0.05 0.05 0.06 0.05 0.04 0.03 0.03 0.02 0.01 0.01 0.01 0.01 0.01 0.01 0.01 0.01 0.01 0.01 0.01 0.01 0.01 0.02 0.02 0.02 0.02 0.03 0.04
0.16 0.13 0.11 0.09 0.09 0.09 0.08 0.08 0.09 0.09 0.09 0.08 0.07 0.07 0.07 0.07 0.06 0.06 0.06 0.06 0.06 0.05 0.04 0.03 0.03 0.02 0.02 0.01 0.01 0.01 0.01 0.01 0.00 0.00 0.01 0.00 0.01 0.01 0.01 0.01 0.01 0.01 0.01
0.22 0.19 0.16 0.12 0.12 0.11 0.11 0.10 0.08 0.07 0.08 0.07 0.07 0.07 0.07 0.07 0.08 0.08 0.08 0.08 0.08 0.07 0.05 0.04 0.04 0.04 0.04 0.03 0.03 0.02 0.01 0.01 0.00 0.00 0.00 0.00 0.00 0.00 0.00 0.00 0.01 0.01 0.01
0.21 0.21 0.20 0.17 0.16 0.15 0.14 0.14 0.12 0.10 0.10 0.09 0.08 0.08 0.08 0.08 0.09 0.09 0.10 0.11 0.11 0.10 0.08 0.06 0.05 0.04 0.03 0.03 0.02 0.01 0.01 0.00 0.00 0.00 0.00 0.00 0.00 0.00 0.00 0.00 0.00 0.01 0.01
0.16 0.18 0.19 0.17 0.17 0.17 0.17 0.16 0.15 0.13 0.11 0.10 0.10 0.10 0.09 0.09 0.09 0.10 0.11 0.11 0.11 0.11 0.10 0.08 0.06 0.04 0.03 0.02 0.01 0.01 0.00 0.00 0.00 0.00 0.00 0.00 0.00 0.00 0.01 0.01 0.01 0.01 0.02
0.15 0.14 0.15 0.14 0.12 0.11 0.11 0.11 0.11 0.11 0.11 0.10 0.09 0.09 0.09 0.09 0.08 0.07 0.07 0.06 0.06 0.05 0.05 0.04 0.03 0.03 0.02 0.02 0.01 0.01 0.00 0.00 0.00 0.01 0.01 0.00 0.00 0.00 0.00 0.01 0.01 0.01 0.01
0.16 0.15 0.15 0.13 0.12 0.11 0.09 0.08 0.08 0.08 0.08 0.08 0.08 0.08 0.08 0.08 0.07 0.06 0.06 0.05 0.05 0.04 0.04 0.03 0.03 0.02 0.01 0.01 0.01 0.01 0.00 0.00 0.00 0.01 0.01 0.01 0.01 0.01 0.01 0.01 0.01 0.01 0.01
0.11 0.12 0.11 0.11 0.10 0.10 0.09 0.07 0.07 0.07 0.06 0.06 0.06 0.06 0.06 0.06 0.06 0.06 0.05 0.05 0.05 0.05 0.04 0.04 0.03 0.02 0.01 0.01 0.01 0.01 0.01 0.00 0.00 0.01 0.01 0.01 0.01 0.01 0.01 0.01 0.01 0.01 0.01
0.07 0.07 0.07 0.07 0.08 0.09 0.08 0.08 0.07 0.07 0.07 0.07 0.07 0.06 0.06 0.06 0.06 0.06 0.05 0.05 0.05 0.04 0.03 0.03 0.03 0.03 0.02 0.02 0.02 0.01 0.01 0.01 0.01 0.00 0.01 0.01 0.01 0.01 0.01 0.01 0.01 0.00 0.00
0.06 0.06 0.06 0.06 0.06 0.07 0.08 0.08 0.07 0.07 0.07 0.07 0.07 0.07 0.06 0.07 0.06 0.07 0.07 0.06 0.05 0.04 0.04 0.03 0.03 0.03 0.02 0.02 0.01 0.01 0.01 0.01 0.01 0.01 0.00 0.01 0.00 0.01 0.01 0.01 0.01 0.00 0.00
0.07 0.06 0.05 0.05 0.06 0.06 0.06 0.06 0.07 0.06 0.07 0.08 0.08 0.07 0.06 0.06 0.06 0.06 0.06 0.06 0.06 0.06 0.04 0.03 0.02 0.01 0.01 0.01 0.01 0.01 0.01 0.01 0.01 0.00 0.00 0.00 0.00 0.00 0.01 0.01 0.01 0.00 0.00
0.07 0.08 0.07 0.07 0.07 0.07 0.06 0.05 0.05 0.06 0.07 0.07 0.08 0.07 0.06 0.06 0.05 0.05 0.05 0.05 0.05 0.05 0.05 0.04 0.02 0.01 0.01 0.01 0.00 0.00 0.01 0.01 0.01 0.01 0.01 0.00 0.00 0.00 0.01 0.01 0.01 0.00 0.00
0.06 0.06 0.06 0.06 0.06 0.06 0.06 0.05 0.05 0.06 0.07 0.07 0.06 0.06 0.06 0.06 0.06 0.06 0.06 0.06 0.05 0.04 0.04 0.04 0.03 0.02 0.01 0.01 0.01 0.00 0.00 0.00 0.01 0.01 0.00 0.00 0.00 0.00 0.01 0.01 0.01 0.01 0.00
0.06 0.05 0.04 0.05 0.05 0.05 0.05 0.05 0.06 0.06 0.07 0.06 0.05 0.04 0.05 0.06 0.06 0.05 0.05 0.06 0.06 0.04 0.03 0.03 0.03 0.02 0.01 0.01 0.01 0.01 0.00 0.00 0.00 0.00 0.00 0.00 0.00 0.00 0.00 0.00 0.00 0.00 0.00
MSLP
1012.44 1013.10 1013.70 1014.28 1014.84 1015.41 1015.96 1016.47 1016.92 1017.29 1017.56 1017.76 1017.92 1018.07 1018.26 1018.50 1018.81 1019.17 1019.55 1019.92 1020.22 1020.46 1020.62 1020.72 1020.78 1020.83 1020.89 1020.97 1021.08 1021.20 1021.31 1021.41 1021.49 1021.54 1021.58 1021.61 1021.66 1021.70 1021.76 1021.80 1021.83 1021.83 1021.80
1012.03 1012.73 1013.38 1013.99 1014.60 1015.19 1015.77 1016.30 1016.77 1017.16 1017.46 1017.68 1017.86 1018.02 1018.21 1018.44 1018.73 1019.05 1019.38 1019.70 1019.97 1020.18 1020.32 1020.41 1020.47 1020.53 1020.60 1020.69 1020.80 1020.92 1021.03 1021.12 1021.20 1021.25 1021.30 1021.34 1021.40 1021.46 1021.53 1021.58 1021.62 1021.64 1021.63
1011.57 1012.31 1013.00 1013.66 1014.30 1014.95 1015.57 1016.15 1016.66 1017.09 1017.42 1017.68 1017.87 1018.05 1018.22 1018.43 1018.66 1018.93 1019.19 1019.44 1019.65 1019.82 1019.93 1020.01 1020.08 1020.15 1020.24 1020.34 1020.46 1020.58 1020.69 1020.78 1020.84 1020.89 1020.93 1020.97 1021.03 1021.10 1021.17 1021.25 1021.30 1021.33 1021.33
1011.12 1011.88 1012.60 1013.30 1014.00 1014.69 1015.37 1016.01 1016.58 1017.06 1017.45 1017.74 1017.96 1018.14 1018.31 1018.48 1018.66 1018.85 1019.03 1019.20 1019.34 1019.45 1019.54 1019.61 1019.68 1019.76 1019.87 1020.00 1020.13 1020.25 1020.36 1020.43 1020.47 1020.50 1020.52 1020.54 1020.59 1020.65 1020.73 1020.81 1020.87 1020.91 1020.93
1010.75 1011.51 1012.24 1012.97 1013.70 1014.45 1015.18 1015.87 1016.50 1017.05 1017.49 1017.84 1018.10 1018.29 1018.45 1018.59 1018.72 1018.84 1018.94 1019.03 1019.10 1019.16 1019.21 1019.27 1019.35 1019.45 1019.58 1019.73 1019.88 1020.00 1020.09 1020.14 1020.15 1020.13 1020.11 1020.10 1020.12 1020.16 1020.22 1020.30 1020.37 1020.42 1020.45
1010.50 1011.24 1011.96 1012.69 1013.44 1014.21 1014.98 1015.72 1016.41 1017.01 1017.51 1017.91 1018.22 1018.45 1018.62 1018.74 1018.84 1018.90 1018.95 1018.97 1018.99 1019.00 1019.02 1019.07 1019.16 1019.29 1019.44 1019.61 1019.76 1019.88 1019.95 1019.96 1019.92 1019.85 1019.77 1019.70 1019.67 1019.67 1019.71 1019.77 1019.84 1019.89 1019.92
1010.38 1011.07 1011.77 1012.48 1013.22 1013.99 1014.77 1015.53 1016.25 1016.90 1017.46 1017.92 1018.29 1018.56 1018.76 1018.90 1018.98 1019.03 1019.04 1019.03 1019.01 1018.99 1019.01 1019.06 1019.16 1019.31 1019.49 1019.67 1019.82 1019.93 1019.97 1019.93 1019.83 1019.68 1019.53 1019.39 1019.29 1019.24 1019.24 1019.28 1019.33 1019.37 1019.40
1010.37 1011.01 1011.66 1012.33 1013.03 1013.77 1014.54 1015.30 1016.04 1016.71 1017.32 1017.83 1018.25 1018.58 1018.83 1019.01 1019.12 1019.18 1019.19 1019.18 1019.15 1019.14 1019.16 1019.22 1019.35 1019.51 1019.70 1019.89 1020.05 1020.13 1020.13 1020.04 1019.87 1019.65 1019.41 1019.20 1019.03 1018.92 1018.87 1018.87 1018.90 1018.93 1018.94
1010.41 1011.01 1011.60 1012.22 1012.88 1013.57 1014.29 1015.03 1015.75 1016.43 1017.06 1017.61 1018.09 1018.49 1018.80 1019.04 1019.21 1019.32 1019.37 1019.39 1019.39 1019.40 1019.44 1019.53 1019.67 1019.85 1020.06 1020.25 1020.39 1020.45 1020.41 1020.27 1020.04 1019.75 1019.44 1019.15 1018.91 1018.74 1018.64 1018.61 1018.60 1018.61 1018.60
1010.43 1010.99 1011.55 1012.12 1012.72 1013.37 1014.04 1014.73 1015.41 1016.08 1016.71 1017.29 1017.81 1018.27 1018.66 1018.98 1019.23 1019.41 1019.53 1019.60 1019.66 1019.71 1019.79 1019.90 1020.06 1020.26 1020.46 1020.65 1020.78 1020.81 1020.75 1020.57 1020.29 1019.94 1019.58 1019.23 1018.94 1018.72 1018.58 1018.50 1018.47 1018.44 1018.40
1010.35 1010.90 1011.44 1011.99 1012.55 1013.15 1013.77 1014.41 1015.05 1015.70 1016.32 1016.91 1017.47 1017.97 1018.43 1018.83 1019.17 1019.43 1019.64 1019.79 1019.91 1020.02 1020.13 1020.27 1020.45 1020.64 1020.84 1021.02 1021.13 1021.15 1021.06 1020.86 1020.56 1020.19 1019.80 1019.42 1019.09 1018.85 1018.67 1018.57 1018.50 1018.43 1018.35
1010.13 1010.70 1011.25 1011.79 1012.34 1012.91 1013.49 1014.10 1014.71 1015.32 1015.93 1016.52 1017.09 1017.64 1018.16 1018.63 1019.05 1019.40 1019.69 1019.93 1020.11 1020.27 1020.42 1020.58 1020.76 1020.94 1021.13 1021.29 1021.38 1021.40 1021.30 1021.10 1020.80 1020.44 1020.05 1019.67 1019.34 1019.08 1018.89 1018.77 1018.67 1018.58 1018.45
1009.77 1010.37 1010.94 1011.51 1012.07 1012.64 1013.22 1013.81 1014.40 1014.99 1015.58 1016.17 1016.76 1017.34 1017.89 1018.43 1018.91 1019.34 1019.71 1020.01 1020.26 1020.46 1020.63 1020.80 1020.96 1021.13 1021.29 1021.43 1021.51 1021.51 1021.43 1021.25 1020.97 1020.64 1020.29 1019.94 1019.63 1019.38 1019.20 1019.07 1018.95 1018.83 1018.67
1009.29 1009.93 1010.54 1011.15 1011.76 1012.36 1012.96 1013.56 1014.15 1014.74 1015.33 1015.91 1016.50 1017.10 1017.69 1018.26 1018.80 1019.29 1019.72 1020.07 1020.36 1020.59 1020.77 1020.93 1021.07 1021.21 1021.34 1021.44 1021.51 1021.51 1021.45 1021.30 1021.07 1020.80 1020.49 1020.19 1019.93 1019.71 1019.54 1019.41 1019.29 1019.16 1018.97
1008.77 1009.43 1010.09 1010.75 1011.41 1012.07 1012.71 1013.35 1013.97 1014.57 1015.17 1015.76 1016.36 1016.97 1017.57 1018.17 1018.75 1019.28 1019.75 1020.14 1020.45 1020.69 1020.87 1021.01 1021.12 1021.22 1021.30 1021.38 1021.43 1021.43 1021.39 1021.28 1021.11 1020.90 1020.66 1020.42 1020.20 1020.02 1019.88 1019.76 1019.65 1019.51 1019.30
1008.28 1008.95 1009.64 1010.35 1011.07 1011.79 1012.49 1013.18 1013.85 1014.48 1015.10 1015.71 1016.32 1016.94 1017.56 1018.18 1018.78 1019.33 1019.83 1020.24 1020.57 1020.81 1020.97 1021.09 1021.16 1021.21 1021.26 1021.30 1021.33 1021.34 1021.31 1021.24 1021.12 1020.97 1020.79 1020.61 1020.43 1020.29 1020.17 1020.07 1019.97 1019.83 1019.64
1007.94 1008.58 1009.28 1010.01 1010.77 1011.55 1012.32 1013.07 1013.78 1014.46 1015.11 1015.75 1016.37 1017.01 1017.64 1018.27 1018.88 1019.45 1019.96 1020.39 1020.72 1020.96 1021.11 1021.19 1021.23 1021.25 1021.26 1021.27 1021.28 1021.28 1021.27 1021.23 1021.15 1021.04 1020.91 1020.76 1020.62 1020.50 1020.40 1020.31 1020.22 1020.11 1019.94
1007.80 1008.39 1009.06 1009.80 1010.58 1011.39 1012.20 1013.00 1013.76 1014.48 1015.17 1015.83 1016.48 1017.12 1017.76 1018.41 1019.03 1019.61 1020.13 1020.57 1020.91 1021.15 1021.29 1021.36 1021.37 1021.36 1021.34 1021.32 1021.32 1021.32 1021.31 1021.29 1021.23 1021.15 1021.04 1020.91 1020.78 1020.66 1020.56 1020.48 1020.40 1020.31 1020.18
1007.90 1008.42 1009.04 1009.74 1010.51 1011.33 1012.16 1012.98 1013.78 1014.53 1015.24 1015.93 1016.59 1017.25 1017.90 1018.55 1019.19 1019.78 1020.32 1020.77 1021.11 1021.36 1021.50 1021.57 1021.57 1021.54 1021.50 1021.48 1021.46 1021.46 1021.45 1021.43 1021.38 1021.30 1021.18 1021.05 1020.90 1020.77 1020.65 1020.56 1020.49 1020.42 1020.33
1008.24 1008.67 1009.22 1009.87 1010.60 1011.39 1012.21 1013.04 1013.83 1014.60 1015.32 1016.02 1016.69 1017.35 1018.02 1018.68 1019.32 1019.93 1020.47 1020.94 1021.31 1021.57 1021.72 1021.79 1021.80 1021.77 1021.73 1021.70 1021.68 1021.67 1021.66 1021.63 1021.58 1021.48 1021.35 1021.19 1021.01 1020.84 1020.69 1020.58 1020.50 1020.45 1020.40
1008.77 1009.12 1009.59 1010.17 1010.84 1011.58 1012.37 1013.16 1013.94 1014.69 1015.40 1016.09 1016.76 1017.43 1018.09 1018.76 1019.41 1020.02 1020.59 1021.07 1021.45 1021.73 1021.91 1022.00 1022.02 1022.00 1021.97 1021.94 1021.93 1021.92 1021.90 1021.87 1021.80 1021.69 1021.53 1021.33 1021.11 1020.89 1020.70 1020.55 1020.45 1020.40 1020.38
1009.41 1009.70 1010.10 1010.61 1011.21 1011.89 1012.61 1013.36 1014.09 1014.81 1015.50 1016.17 1016.82 1017.48 1018.13 1018.79 1019.44 1020.07 1020.64 1021.13 1021.53 1021.83 1022.03 1022.14 1022.18 1022.18 1022.17 1022.15 1022.15 1022.14 1022.13 1022.10 1022.02 1021.88 1021.69 1021.46 1021.20 1020.93 1020.69 1020.50 1020.38 1020.32 1020.31
1010.09 1010.33 1010.68 1011.13 1011.67 1012.28 1012.94 1013.62 1014.30 1014.97 1015.62 1016.25 1016.88 1017.51 1018.15 1018.80 1019.44 1020.06 1020.63 1021.13 1021.54 1021.85 1022.06 1022.19 1022.25 1022.27 1022.28 1022.28 1022.29 1022.30 1022.30 1022.27 1022.19 1022.05 1021.85 1021.58 1021.29 1020.98 1020.70 1020.47 1020.31 1020.22 1020.21
1010.70 1010.93 1011.25 1011.66 1012.15 1012.71 1013.31 1013.93 1014.55 1015.16 1015.76 1016.36 1016.95 1017.56 1018.17 1018.80 1019.43 1020.03 1020.59 1021.08 1021.49 1021.80 1022.01 1022.15 1022.22 1022.26 1022.28 1022.30 1022.33 1022.36 1022.37 1022.36 1022.30 1022.17 1021.97 1021.70 1021.39 1021.06 1020.75 1020.48 1020.28 1020.17 1020.13
1011.16 1011.41 1011.73 1012.13 1012.60 1013.11 1013.67 1014.24 1014.81 1015.37 1015.93 1016.48 1017.04 1017.62 1018.21 1018.81 1019.41 1019.99 1020.52 1020.99 1021.38 1021.67 1021.88 1022.01 1022.09 1022.13 1022.16 1022.20 1022.25 1022.31 1022.35 1022.37 1022.34 1022.24 1022.06 1021.82 1021.52 1021.19 1020.86 1020.56 1020.33 1020.18 1020.11
1011.42 1011.70 1012.05 1012.45 1012.92 1013.42 1013.95 1014.49 1015.03 1015.55 1016.08 1016.60 1017.13 1017.68 1018.24 1018.81 1019.38 1019.93 1020.43 1020.87 1021.23 1021.50 1021.69 1021.80 1021.87 1021.92 1021.96 1022.01 1022.08 1022.16 1022.25 1022.31 1022.32 1022.27 1022.14 1021.93 1021.66 1021.35 1021.02 1020.72 1020.46 1020.28 1020.17
Thickness
5703 5701 5700 5698 5697 5696 5694 5693 5693 5693 5693 5693 5693 5693 5692 5691 5690 5688 5686 5684 5682 5681 5679 5677 5676 5674 5672 5670 5668 5666 5664 5661 5659 5657 5655 5653 5650 5647 5645 5642 5639 5636 5633
5700 5698 5697 5695 5695 5693 5692 5691 5691 5690 5690 5690 5690 5689 5689 5687 5686 5684 5682 5681 5679 5677 5675 5674 5672 5671 5669 5667 5665 5662 5660 5658 5656 5654 5651 5649 5646 5643 5641 5638 5635 5632 5628
5697 5695 5693 5692 5691 5690 5689 5688 5687 5687 5686 5686 5685 5685 5684 5684 5682 5681 5679 5678 5676 5674 5672 5670 5668 5667 5665 5663 5661 5659 5657 5655 5652 5650 5647 5645 5642 5640 5637 5634 5631 5628 5624
5692 5691 5689 5688 5687 5686 5685 5684 5683 5681 5681 5680 5679 5680 5680 5679 5678 5677 5676 5674 5673 5671 5668 5666 5664 5662 5660 5658 5657 5655 5653 5651 5648 5646 5643 5641 5638 5635 5633 5630 5627 5624 5620
5687 5686 5684 5684 5683 5682 5681 5680 5679 5677 5675 5674 5674 5674 5674 5674 5674 5673 5672 5671 5669 5667 5665 5662 5660 5658 5656 5653 5652 5650 5648 5646 5644 5641 5639 5636 5634 5631 5628 5625 5622 5619 5615
5682 5681 5679 5679 5678 5677 5676 5675 5674 5673 5671 5669 5669 5668 5668 5669 5669 5668 5667 5666 5664 5662 5660 5658 5655 5653 5651 5649 5646 5645 5643 5641 5639 5636 5633 5631 5628 5626 5623 5620 5616 5613 5609
5675 5674 5674 5673 5673 5672 5671 5670 5668 5666 5665 5665 5660 5657 5660 5662 5663 5663 5662 5661 5659 5657 5655 5653 5650 5648 5646 5644 5641 5639 5637 5636 5634 5631 5628 5625 5623 5620 5617 5614 5611 5607 5604
5669 5668 5668 5667 5667 5666 5665 5664 5663 5660 5659 5659 5654 5649 5646 5649 5654 5657 5656 5655 5653 5651 5649 5646 5644 5642 5640 5638 5635 5633 5631 5629 5627 5625 5622 5619 5617 5614 5611 5608 5604 5600 5597
5662 5662 5662 5662 5661 5660 5659 5658 5657 5655 5652 5652 5652 5647 5642 5641 5644 5647 5649 5648 5646 5644 5642 5640 5637 5635 5632 5630 5628 5626 5624 5621 5619 5617 5615 5613 5610 5607 5604 5600 5597 5593 5589
5656 5655 5655 5655 5654 5654 5653 5652 5652 5650 5648 5645 5645 5646 5645 5643 5637 5635 5638 5639 5638 5637 5635 5633 5630 5628 5625 5623 5620 5618 5616 5614 5611 5609 5607 5605 5602 5599 5595 5592 5588 5585 5581
5648 5648 5648 5648 5647 5646 5646 5646 5645 5644 5643 5641 5639 5639 5637 5637 5635 5630 5627 5627 5628 5628 5627 5625 5622 5620 5617 5615 5612 5610 5607 5605 5603 5600 5598 5596 5593 5590 5586 5582 5578 5575 5573
5640 5640 5640 5640 5639 5638 5638 5638 5638 5637 5636 5634 5633 5632 5631 5629 5628 5625 5622 5620 5619 5619 5618 5617 5615 5611 5609 5606 5604 5601 5598 5595 5593 5591 5588 5586 5582 5579 5575 5571 5568 5565 5563
5631 5631 5632 5631 5630 5630 5630 5630 5629 5628 5628 5626 5626 5625 5624 5624 5624 5622 5617 5614 5612 5610 5609 5607 5606 5603 5600 5598 5594 5592 5588 5586 5583 5580 5578 5575 5571 5568 5564 5561 5558 5555 5553
5624 5623 5623 5622 5621 5621 5620 5619 5619 5619 5618 5618 5617 5617 5615 5616 5616 5614 5611 5607 5603 5602 5600 5598 5596 5594 5591 5588 5585 5582 5579 5576 5573 5570 5567 5564 5560 5557 5554 5550 5547 5544 5542
5613 5613 5613 5612 5612 5611 5609 5608 5607 5607 5607 5606 5606 5606 5605 5605 5606 5605 5603 5601 5596 5594 5592 5589 5586 5584 5581 5578 5575 5572 5568 5565 5562 5559 5556 5553 5550 5546 5543 5539 5536 5534 5532
5603 5603 5603 5602 5601 5600 5598 5596 5595 5595 5594 5594 5594 5594 5594 5594 5593 5593 5592 5590 5589 5587 5583 5580 5576 5573 5570 5567 5565 5562 5559 5555 5552 5549 5545 5542 5539 5535 5532 5528 5525 5523 5521
5593 5592 5592 5592 5590 5588 5587 5585 5584 5582 5582 5582 5582 5582 5582 5582 5582 5581 5580 5580 5578 5576 5573 5569 5565 5562 5558 5556 5554 5551 5548 5546 5542 5539 5535 5532 5529 5525 5521 5518 5515 5513 5511
5582 5582 5581 5581 5579 5577 5576 5574 5572 5572 5571 5571 5571 5571 5570 5570 5570 5570 5569 5568 5566 5565 5562 5558 5553 5550 5548 5545 5542 5539 5537 5535 5532 5529 5525 5522 5519 5515 5511 5508 5506 5503 5501
5570 5570 5569 5569 5568 5566 5565 5564 5563 5562 5561 5561 5561 5560 5559 5558 5557 5557 5556 5555 5555 5554 5552 5548 5543 5539 5536 5534 5530 5528 5525 5523 5520 5518 5515 5512 5509 5505 5501 5498 5496 5493 5491
5558 5557 5557 5557 5556 5554 5553 5552 5551 5550 5550 5549 5549 5549 5548 5548 5546 5545 5544 5543 5543 5541 5539 5536 5532 5527 5524 5522 5519 5516 5512 5510 5508 5506 5504 5501 5499 5495 5492 5489 5487 5484 5482
5546 5545 5545 5545 5544 5542 5541 5539 5538 5537 5537 5537 5536 5535 5535 5535 5534 5533 5532 5531 5530 5530 5527 5523 5520 5516 5513 5510 5507 5505 5501 5498 5496 5495 5491 5489 5488 5485 5482 5480 5477 5475 5472
5534 5534 5534 5533 5532 5530 5529 5527 5526 5524 5525 5525 5524 5523 5523 5522 5522 5522 5520 5520 5519 5518 5516 5513 5510 5507 5504 5501 5497 5494 5490 5486 5484 5483 5479 5477 5477 5474 5472 5470 5468 5466 5464
5522 5522 5522 5521 5519 5518 5517 5516 5515 5513 5513 5513 5513 5512 5511 5511 5510 5509 5508 5507 5506 5506 5506 5504 5500 5498 5495 5492 5488 5484 5480 5476 5474 5472 5469 5466 5465 5464 5463 5461 5458 5456 5455
5509 5509 5509 5508 5507 5506 5506 5505 5503 5503 5502 5502 5502 5502 5500 5499 5498 5497 5496 5494 5492 5492 5493 5492 5490 5488 5486 5482 5479 5475 5470 5466 5462 5460 5458 5455 5454 5453 5453 5451 5449 5447 5446
5496 5496 5496 5495 5495 5494 5494 5493 5492 5491 5491 5490 5491 5491 5490 5489 5488 5487 5485 5481 5479 5479 5479 5479 5477 5475 5473 5470 5467 5462 5457 5454 5451 5449 5447 5444 5442 5441 5440 5440 5439 5438 5437
5483 5483 5483 5483 5483 5482 5482 5481 5481 5480 5479 5479 5479 5479 5479 5479 5477 5476 5474 5471 5469 5468 5467 5465 5463 5461 5459 5457 5455 5452 5448 5444 5441 5438 5435 5433 5430 5428 5427 5428 5428 5428 5427